Location: Kershaw
(34.5481°N, 80.5823°W)
Time: 02:17:39
(UTC+00:00)

Tiros 1 despin weight - Pass Details

Date: 04 October 2022
Orbit: 590 x 637 km, 48.2° (Epoch: 30 November)

Event Time Altitude Azimuth Distance (km) Brightness Sun altitude
Rises 20:13:48 0° 238° (WSW) 2,816 ? 31.9°
Reaches altitude 10° 20:16:05 10° 241° (WSW) 1,923 ? 31.5°
Maximum altitude 20:20:28 68° 324° (NW) 650 ? 30.7°
Drops below altitude 10° 20:24:56 10° 48° (NE) 1,959 ? 29.9°
Sets 20:27:17 0° 51° (NE) 2,874 ? 29.5°
